GW3564 Weather Reports


time (UTC)temp
F
wind
direction
speed
knots
gust
knots
rain 1hr
in
rain 24hr
in
rain mn
in
humidity
%
barometer
mb
20260508102119 34 180 0.0 0.0 0.00 0.00 0.00 99 1017.7
20260508101615 35 179 0.0 0.0 0.00 0.00 0.00 99 1017.6
20260508101113 35 179 0.0 0.0 0.00 0.00 0.00 99 1017.7
20260508100610 35 181 0.0 0.0 0.00 0.00 0.00 99 1017.6
20260508100108 35 180 0.0 0.0 0.00 0.00 0.00 99 1017.8
20260508095604 35 180 0.0 0.0 0.00 0.00 0.00 99 1017.6
20260508095101 35 179 0.0 0.0 0.00 0.00 0.00 99 1017.4
20260508094559 35 182 0.0 0.0 0.00 0.00 0.00 99 1017.6
20260508094055 36 182 0.0 0.0 0.00 0.00 0.00 99 1017.5
20260508093553 36 182 0.0 0.0 0.00 0.00 0.00 99 1017.6
20260508093050 36 186 0.0 0.0 0.00 0.00 0.00 99 1017.3
20260508092547 37 187 0.0 0.0 0.00 0.00 0.00 99 1017.4
20260508092046 37 187 0.0 0.0 0.00 0.00 0.00 99 1017.4
20260508091543 37 190 0.0 0.0 0.00 0.00 0.00 99 1017.5
20260508091039 37 192 0.0 0.0 0.00 0.00 0.00 99 1017.3
20260508090538 37 187 0.0 0.0 0.00 0.00 0.00 99 1017.3
20260508090034 36 186 0.0 0.0 0.00 0.00 0.00 99 1017.1
20260508085530 37 181 0.0 0.0 0.00 0.00 0.00 99 1017.4
20260508085028 36 185 0.0 0.0 0.00 0.00 0.00 99 1017.3
20260508084524 37 187 0.0 0.0 0.00 0.00 0.00 99 1017.3
20260508084022 37 187 0.0 0.0 0.00 0.00 0.00 99 1017.2
20260508083519 37 187 0.0 0.0 0.00 0.00 0.00 99 1017.4
20260508083015 37 182 0.0 0.0 0.00 0.00 0.00 99 1017.4
20260508082511 37 183 0.0 0.0 0.00 0.00 0.00 99 1017.1
20260508082009 37 182 0.0 0.0 0.00 0.00 0.00 98 1017.2
20260508081506 37 182 0.0 0.0 0.00 0.00 0.00 98 1017.1
20260508081002 37 182 0.0 0.0 0.00 0.00 0.00 98 1017.2
20260508080500 38 181 0.0 0.0 0.00 0.00 0.00 98 1017.1
20260508075957 38 187 0.0 0.0 0.00 0.00 0.00 97 1017.2
20260508075454 38 187 0.0 0.0 0.00 0.00 0.00 97 1016.9
20260508074951 38 187 0.0 0.0 0.00 0.00 0.00 97 1017.0
20260508074449 38 187 0.0 0.0 0.00 0.00 0.00 97 1017.2
20260508073945 38 187 0.0 0.0 0.00 0.00 0.00 96 1017.0
20260508073443 38 181 0.0 0.0 0.00 0.00 0.00 96 1016.9
20260508072939 38 182 0.0 0.0 0.00 0.00 0.00 96 1017.0
20260508072436 39 180 0.0 0.0 0.00 0.00 0.00 96 1016.4
20260508071933 39 202 0.0 0.0 0.00 0.00 0.00 96 1016.7
20260508071431 39 182 0.0 0.0 0.00 0.00 0.00 96 1016.7
20260508070928 39 192 0.0 0.0 0.00 0.00 0.00 96 1016.7
20260508070426 39 192 0.0 0.0 0.00 0.00 0.00 96 1016.8
20260508065924 39 179 0.0 0.0 0.00 0.00 0.00 96 1016.9
20260508065422 39 187 0.0 0.0 0.00 0.00 0.00 96 1016.9
20260508064919 39 172 0.0 0.0 0.00 0.00 0.00 96 1016.7
20260508064416 39 187 0.0 0.0 0.00 0.00 0.00 97 1016.8
20260508063914 39 177 0.0 0.0 0.00 0.00 0.00 97 1016.7
20260508063412 39 177 0.0 0.0 0.00 0.00 0.00 97 1016.5
20260508062908 39 182 0.0 0.0 0.00 0.00 0.00 97 1016.7
20260508062406 39 174 0.0 0.0 0.00 0.00 0.00 96 1016.9
20260508061903 40 185 0.0 0.0 0.00 0.00 0.00 96 1016.7
20260508061401 40 185 0.0 0.0 0.00 0.00 0.00 96 1016.7
20260508060857 40 185 0.0 0.0 0.00 0.00 0.00 96 1016.5
20260508060355 40 188 0.0 0.0 0.00 0.00 0.00 96 1016.9
20260508055856 40 191 0.0 0.0 0.00 0.00 0.00 96 1016.8
20260508055353 40 190 0.0 0.0 0.00 0.00 0.00 96 1017.1
20260508054849 40 191 0.0 0.0 0.00 0.00 0.00 96 1016.9
20260508054342 41 187 0.0 0.0 0.00 0.00 0.00 96 1016.7
20260508053838 41 188 0.0 0.0 0.00 0.00 0.00 96 1016.8
20260508053336 41 189 0.0 0.0 0.00 0.00 0.00 95 1016.7
20260508052833 41 197 0.0 0.0 0.00 0.00 0.00 95 1016.9
20260508052331 41 192 0.0 0.0 0.00 0.00 0.00 95 1017.0
20260508051826 41 187 0.0 0.0 0.00 0.00 0.00 95 1016.4
20260508051322 41 183 0.0 0.0 0.00 0.00 0.00 94 1016.3
20260508050818 41 180 0.0 0.0 0.00 0.00 0.00 95 1016.2
20260508050316 41 183 0.0 0.0 0.00 0.00 0.00 94 1016.2
20260508045811 42 183 0.0 0.0 0.00 0.00 0.00 94 1016.1
20260508045309 42 182 0.0 0.0 0.00 0.00 0.00 94 1016.0
20260508044807 42 184 0.0 0.0 0.00 0.00 0.00 94 1015.8
20260508044303 42 183 0.0 0.0 0.00 0.00 0.00 93 1015.8
20260508043759 43 183 0.0 0.0 0.00 0.00 0.00 93 1015.7
20260508043257 43 183 0.0 0.0 0.00 0.00 0.00 93 1015.8
20260508042753 43 192 0.0 0.0 0.00 0.00 0.00 93 1016.0
20260508042251 43 192 0.0 0.0 0.00 0.00 0.00 92 1015.9
20260508041747 44 192 0.0 0.0 0.00 0.00 0.00 92 1015.8
20260508041244 44 192 0.0 0.0 0.00 0.00 0.00 91 1015.7
20260508040740 45 185 0.0 0.0 0.00 0.00 0.00 90 1015.7
20260508040238 45 187 0.0 0.0 0.00 0.00 0.00 88 1015.9
20260508035735 45 187 0.0 0.0 0.00 0.02 0.02 86 1015.8
20260508035232 46 190 0.0 0.0 0.00 0.02 0.02 85 1015.6
20260508034729 46 190 0.0 0.0 0.00 0.02 0.02 85 1015.5
20260508034226 47 189 0.0 0.0 0.00 0.02 0.02 83 1015.4
20260508033723 47 194 0.0 0.9 0.00 0.02 0.02 81 1015.5
20260508033222 48 190 0.0 0.0 0.00 0.02 0.02 79 1015.5
20260508032719 48 190 0.0 0.0 0.00 0.02 0.02 78 1015.7
20260508032216 47 219 0.0 0.9 0.00 0.02 0.02 81 1015.6
20260508031712 48 224 0.9 0.9 0.00 0.02 0.02 79 1015.7
20260508031203 48 188 0.0 0.0 0.00 0.02 0.02 80 1015.5
20260508030659 48 193 0.9 0.9 0.00 0.02 0.02 79 1015.4
20260508030157 48 220 0.9 0.9 0.00 0.02 0.02 78 1015.2
20260508025653 49 186 0.0 0.9 0.00 0.02 0.02 79 1015.2
20260508025150 49 234 0.9 0.9 0.00 0.02 0.02 75 1015.3
20260508024646 49 223 0.9 0.9 0.00 0.02 0.02 76 1015.1
20260508024144 50 188 0.0 0.9 0.00 0.02 0.02 75 1015.2
20260508023639 49 184 0.9 0.9 0.00 0.02 0.02 78 1015.1
20260508023137 50 220 0.9 0.9 0.00 0.02 0.02 75 1014.7
20260508022633 50 190 0.9 0.9 0.00 0.02 0.02 76 1014.9
20260508022130 50 188 0.9 0.9 0.00 0.02 0.02 75 1014.7
20260508021626 50 262 0.9 0.9 0.00 0.02 0.02 76 1014.9
20260508021122 50 192 0.9 0.9 0.00 0.02 0.02 76 1014.5
20260508020620 51 189 0.9 0.9 0.00 0.02 0.02 75 1014.5
20260508020117 50 191 0.0 0.9 0.00 0.02 0.02 77 1014.5
20260508015615 50 191 0.9 0.9 0.00 0.02 0.02 76 1014.2
20260508015111 51 236 0.9 0.9 0.00 0.02 0.02 77 1014.2
20260508014607 51 240 1.7 2.6 0.00 0.02 0.02 73 1014.0
20260508014104 50 212 0.9 0.9 0.00 0.02 0.02 73 1014.0
20260508013600 51 217 0.9 0.9 0.00 0.02 0.02 77 1014.1
20260508013057 51 216 0.9 0.9 0.00 0.02 0.02 75 1013.9
20260508012555 51 205 1.7 1.7 0.00 0.02 0.02 74 1013.7
20260508012052 50 291 2.6 4.3 0.00 0.02 0.02 81 1013.9
20260508011550 50 187 0.0 0.0 0.00 0.02 0.02 79 1013.9
20260508011047 50 206 0.9 0.9 0.00 0.02 0.02 80 1013.6
20260508010544 50 260 0.9 1.7 0.00 0.02 0.02 83 1013.6
20260508010041 50 133 0.9 1.7 0.00 0.02 0.02 82 1013.5
20260508005537 49 183 0.0 0.0 0.00 0.02 0.02 85 1013.7
20260508005034 50 163 0.0 0.9 0.00 0.02 0.02 84 1013.5
20260508004530 50 189 0.0 0.0 0.00 0.02 0.02 83 1013.4
20260508004027 50 189 0.0 0.0 0.00 0.02 0.02 82 1013.6
20260508003524 50 191 0.0 0.0 0.00 0.02 0.02 80 1013.4
20260508003022 51 179 0.0 0.0 0.00 0.02 0.02 81 1013.4
20260508002517 51 183 0.0 0.0 0.00 0.02 0.02 79 1013.4
20260508002015 52 198 0.0 0.0 0.00 0.02 0.02 76 1013.6
20260508001510 53 183 0.0 0.0 0.00 0.02 0.02 73 1013.4
20260508001006 54 179 0.0 0.9 0.00 0.02 0.02 73 1013.4
20260508000502 54 187 0.0 0.0 0.00 0.02 0.02 72 1013.4
20260507235959 55 196 0.9 0.9 0.00 0.02 0.02 69 1013.2
20260507235451 55 239 1.7 2.6 0.00 0.02 0.02 69 1013.4
20260507234948 55 273 2.6 2.6 0.00 0.02 0.02 65 1013.2
20260507234445 56 172 0.9 0.9 0.00 0.02 0.02 68 1013.2
20260507233941 57 207 0.9 0.9 0.00 0.02 0.02 66 1013.0
20260507233438 57 190 0.0 0.9 0.00 0.02 0.02 66 1013.2
20260507232936 57 298 3.5 4.3 0.00 0.02 0.02 64 1013.0
20260507232432 58 209 0.9 0.9 0.00 0.02 0.02 63 1012.8
20260507231929 58 183 1.7 1.7 0.00 0.02 0.02 61 1013.0
20260507231420 59 315 2.6 2.6 0.00 0.02 0.02 63 1012.8
20260507230918 59 232 1.7 1.7 0.00 0.02 0.02 61 1012.8
20260507230415 59 157 0.9 0.9 0.00 0.02 0.02 62 1012.9
20260507225914 58 283 2.6 2.6 0.00 0.02 0.02 61 1012.8
20260507225411 59 289 2.6 4.3 0.00 0.02 0.02 60 1012.7
20260507224907 59 236 1.7 1.7 0.00 0.02 0.02 61 1012.6
20260507224403 59 256 3.5 4.3 0.00 0.02 0.02 60 1012.5
20260507223900 59 229 5.2 6.1 0.00 0.02 0.02 60 1012.5
20260507223357 59 270 2.6 2.6 0.00 0.02 0.02 60 1012.5
20260507222853 60 262 3.5 4.3 0.00 0.02 0.02 59 1012.3
20260507222344 60 331 3.5 5.2 0.00 0.02 0.02 59 1012.4
20260507221841 60 236 1.7 1.7 0.00 0.02 0.02 58 1012.4
20260507221337 59 206 0.9 0.9 0.00 0.02 0.02 60 1012.4
20260507220832 59 201 2.6 2.6 0.00 0.02 0.02 59 1012.5
20260507220331 59 209 4.3 5.2 0.00 0.02 0.02 59 1012.4
20260507215827 59 247 2.6 2.6 0.00 0.02 0.02 59 1012.3
20260507215324 59 250 3.5 4.3 0.00 0.02 0.02 59 1012.5
20260507214821 59 283 0.9 1.7 0.00 0.02 0.02 65 1012.4
20260507214319 60 188 2.6 4.3 0.00 0.02 0.02 60 1012.4
20260507213813 60 289 0.9 1.7 0.00 0.02 0.02 67 1012.2
20260507213311 58 248 0.9 1.7 0.00 0.02 0.02 65 1011.9
20260507212808 58 272 2.6 2.6 0.00 0.02 0.02 65 1012.1
20260507212306 58 196 2.6 2.6 0.00 0.02 0.02 64 1011.9
20260507211800 59 309 3.5 4.3 0.00 0.02 0.02 65 1012.0
20260507211257 59 294 3.5 6.1 0.00 0.02 0.02 65 1011.9
20260507210754 59 90 6.1 9.6 0.00 0.02 0.02 64 1011.8
20260507210251 59 196 3.5 5.2 0.00 0.02 0.02 66 1011.8
20260507205747 58 297 2.6 4.3 0.00 0.02 0.02 67 1011.7
20260507205244 59 296 1.7 1.7 0.00 0.02 0.02 67 1011.6
20260507204740 59 184 1.7 1.7 0.00 0.02 0.02 64 1011.8
20260507204238 59 304 7.0 8.7 0.00 0.02 0.02 64 1011.9
20260507203736 58 225 1.7 1.7 0.00 0.02 0.02 68 1011.7
20260507203233 58 258 1.7 1.7 0.00 0.02 0.02 68 1011.7
20260507202730 58 276 3.5 4.3 0.00 0.02 0.02 67 1011.6
20260507202226 59 260 3.5 4.3 0.00 0.02 0.02 67 1011.8
20260507201720 60 252 3.5 4.3 0.00 0.02 0.02 65 1011.3
20260507201217 60 305 4.3 5.2 0.00 0.02 0.02 66 1011.3
20260507200714 59 4 3.5 4.3 0.00 0.02 0.02 69 1011.6
20260507200210 58 278 6.1 7.8 0.00 0.02 0.02 68 1011.5
20260507195706 60 309 3.5 5.2 0.00 0.02 0.02 68 1011.7
20260507195203 60 234 1.7 1.7 0.00 0.02 0.02 69 1011.7
20260507194700 59 290 1.7 1.7 0.00 0.02 0.02 71 1011.8
20260507194156 58 197 0.0 0.0 0.00 0.02 0.02 71 1011.3
20260507193648 59 248 2.6 2.6 0.00 0.02 0.02 72 1011.8
20260507193145 57 246 0.9 1.7 0.00 0.02 0.02 73 1012.4
20260507192641 57 240 0.9 1.7 0.00 0.02 0.02 75 1012.3
20260507192138 56 283 2.6 4.3 0.00 0.02 0.02 75 1012.3
20260507191633 57 272 1.7 1.7 0.00 0.02 0.02 75 1012.7
20260507191130 56 239 2.6 2.6 0.00 0.02 0.02 75 1012.7
20260507190628 56 197 0.9 0.9 0.00 0.02 0.02 76 1012.8
20260507190127 56 225 0.9 0.9 0.00 0.02 0.02 77 1012.6
20260507185625 56 212 0.9 0.9 0.00 0.02 0.02 76 1012.8
20260507185120 55 190 0.9 0.9 0.00 0.02 0.02 78 1012.7
20260507184619 55 207 0.9 0.9 0.00 0.02 0.02 77 1012.9
20260507184117 55 196 0.9 1.7 0.00 0.02 0.02 79 1012.8
20260507183613 55 253 2.6 4.3 0.00 0.02 0.02 76 1013.2
20260507183110 55 237 0.9 0.9 0.00 0.02 0.02 78 1013.0
20260507182606 55 189 0.9 1.7 0.00 0.02 0.02 79 1012.8
20260507182102 54 235 1.7 1.7 0.00 0.02 0.02 79 1012.9
20260507181559 54 244 0.0 0.9 0.00 0.02 0.02 81 1013.0
20260507181055 54 211 2.6 2.6 0.00 0.02 0.02 80 1013.2
20260507180552 54 232 0.9 0.9 0.00 0.02 0.02 78 1012.9
20260507180049 55 219 1.7 1.7 0.00 0.02 0.02 78 1012.8
20260507175545 55 192 0.0 0.9 0.00 0.02 0.02 81 1012.8
20260507175043 54 213 0.9 0.9 0.00 0.02 0.02 81 1012.9
20260507174539 53 188 0.9 1.7 0.00 0.02 0.02 80 1012.8
20260507174037 53 345 2.6 4.3 0.00 0.02 0.02 82 1012.8
20260507173534 53 198 0.9 1.7 0.00 0.02 0.02 82 1012.9
20260507173031 53 250 4.3 5.2 0.00 0.02 0.02 81 1013.3
20260507172527 53 236 1.7 1.7 0.00 0.02 0.02 83 1013.2
20260507172024 53 248 0.9 0.9 0.00 0.02 0.02 85 1013.3
20260507171519 53 191 1.7 2.6 0.00 0.02 0.02 85 1013.0
20260507171017 53 238 2.6 2.6 0.00 0.02 0.02 84 1013.3
20260507170513 53 224 0.9 1.7 0.00 0.02 0.02 85 1013.2
20260507170010 53 228 0.9 0.9 0.00 0.02 0.02 86 1013.4
20260507165506 53 265 1.7 1.7 0.00 0.02 0.02 86 1013.0
20260507165003 53 206 0.9 1.7 0.00 0.02 0.02 85 1012.9
20260507164459 53 191 0.9 1.7 0.00 0.02 0.02 86 1013.3
20260507163956 53 199 0.0 0.9 0.00 0.02 0.02 86 1013.3
20260507163453 52 203 0.9 0.9 0.00 0.02 0.02 86 1013.5
20260507162950 52 185 0.0 0.9 0.00 0.02 0.02 87 1013.3
20260507162446 53 239 0.9 1.7 0.00 0.02 0.02 85 1013.4
20260507161943 53 285 3.5 4.3 0.00 0.02 0.02 84 1013.7
20260507161439 53 238 1.7 2.6 0.00 0.02 0.02 85 1013.4
20260507160936 53 263 1.7 2.6 0.00 0.02 0.02 85 1013.2
20260507160432 53 207 0.9 0.9 0.00 0.02 0.02 86 1013.4
20260507155927 53 235 1.7 1.7 0.00 0.02 0.02 84 1013.5
20260507155424 53 224 0.9 0.9 0.00 0.02 0.02 85 1013.5
20260507154921 53 223 0.9 0.9 0.00 0.02 0.02 86 1013.4
20260507154418 53 235 0.9 1.7 0.00 0.02 0.02 86 1013.7
20260507153915 53 285 2.6 2.6 0.00 0.02 0.02 86 1013.3
20260507153412 53 287 3.5 5.2 0.00 0.02 0.02 86 1013.7
20260507152908 53 199 0.0 0.0 0.00 0.02 0.02 87 1013.5
20260507152404 53 192 1.7 1.7 0.00 0.02 0.02 89 1013.5
20260507151900 52 278 3.5 4.3 0.00 0.02 0.02 87 1013.5
20260507151356 53 250 2.6 2.6 0.00 0.02 0.02 87 1013.8
20260507150854 52 232 1.7 1.7 0.00 0.02 0.02 89 1013.7
20260507150351 51 264 1.7 1.7 0.00 0.02 0.02 91 1013.8
20260507145847 51 206 1.7 1.7 0.00 0.02 0.02 90 1013.7
20260507145343 52 216 1.7 1.7 0.00 0.02 0.02 88 1013.6
20260507144840 53 263 2.6 2.6 0.00 0.02 0.02 86 1013.7
20260507144337 54 260 1.7 2.6 0.00 0.02 0.02 86 1013.4
20260507143834 54 204 0.9 0.9 0.00 0.02 0.02 89 1013.5
20260507143331 54 199 1.7 1.7 0.00 0.02 0.02 87 1013.3
20260507142827 54 351 1.7 2.6 0.00 0.02 0.02 85 1013.4
20260507142324 53 216 0.9 0.9 0.00 0.02 0.02 87 1013.2
20260507141820 53 211 0.9 0.9 0.00 0.02 0.02 87 1013.5
20260507141317 54 217 1.7 1.7 0.00 0.02 0.02 87 1013.3
20260507140814 54 206 0.9 0.9 0.00 0.02 0.02 88 1013.5
20260507140310 53 243 0.9 1.7 0.00 0.02 0.02 88 1013.6
20260507135808 53 219 0.9 0.9 0.00 0.02 0.02 89 1013.4
20260507135306 53 233 0.9 1.7 0.00 0.02 0.02 89 1013.6
20260507134801 53 201 0.9 0.9 0.00 0.02 0.02 90 1013.6
20260507134258 53 231 0.9 0.9 0.00 0.02 0.02 92 1013.4
20260507133754 53 217 1.7 1.7 0.00 0.02 0.02 90 1013.6
20260507133250 53 197 0.9 0.9 0.00 0.02 0.02 91 1013.7
20260507132749 52 192 0.0 0.9 0.00 0.02 0.02 92 1013.7
20260507132245 52 192 0.9 0.9 0.00 0.02 0.02 93 1013.6
20260507131742 52 190 0.0 0.9 0.00 0.02 0.02 93 1013.7
20260507131239 52 224 0.9 0.9 0.00 0.02 0.02 94 1014.0
20260507130735 52 274 1.7 1.7 0.00 0.02 0.02 95 1013.8
20260507130233 52 183 0.0 0.9 0.00 0.02 0.02 96 1013.7
20260507125732 52 208 0.9 0.9 0.00 0.02 0.02 96 1014.1
20260507125229 52 244 0.9 0.9 0.00 0.02 0.02 96 1014.1
20260507124726 52 199 0.9 1.7 0.00 0.02 0.02 96 1013.9
20260507124222 52 207 0.0 0.0 0.00 0.02 0.02 97 1013.7
20260507123721 52 239 0.9 1.7 0.00 0.02 0.02 97 1013.8
20260507123218 52 228 0.9 0.9 0.00 0.02 0.02 98 1013.6
20260507122713 52 216 0.0 0.9 0.00 0.02 0.02 98 1013.8
20260507122209 53 195 0.0 0.0 0.00 0.02 0.02 99 1013.9
20260507121705 52 188 0.0 0.0 0.00 0.02 0.02 98 1013.7
20260507121201 52 190 0.0 0.0 0.00 0.02 0.02 99 1013.7
20260507120657 52 197 0.0 0.0 0.00 0.02 0.02 98 1013.5
20260507120155 52 181 0.0 0.0 0.00 0.02 0.02 98 1013.5
20260507115651 52 174 0.9 0.9 0.00 0.02 0.02 97 1013.6
20260507115146 52 233 1.7 1.7 0.00 0.02 0.02 97 1013.5
20260507114643 52 194 0.0 0.9 0.00 0.02 0.02 97 1013.6
20260507114140 52 236 0.9 0.9 0.00 0.02 0.02 98 1013.6
20260507113637 52 207 0.9 0.9 0.00 0.02 0.02 98 1013.2
20260507113134 52 202 0.0 0.0 0.00 0.02 0.02 97 1013.7
20260507112632 52 210 0.0 0.9 0.00 0.02 0.02 98 1013.5
20260507112128 52 228 1.7 1.7 0.00 0.02 0.02 98 1013.6
20260507111626 52 225 0.9 0.9 0.00 0.02 0.02 99 1013.3
20260507111122 52 247 0.9 1.7 0.00 0.02 0.02 99 1013.2
20260507110618 52 210 0.9 0.9 0.00 0.02 0.02 99 1013.2
20260507110115 52 223 1.7 1.7 0.00 0.02 0.02 99 1013.2
20260507105612 52 201 0.0 0.0 0.00 0.02 0.02 99 1013.0
20260507105108 52 211 0.0 0.0 0.00 0.02 0.02 99 1013.0
20260507104606 52 190 0.0 0.0 0.00 0.02 0.02 99 1012.9
20260507104102 52 195 0.0 0.0 0.00 0.02 0.02 99 1012.7
20260507103558 52 228 0.9 0.9 0.00 0.02 0.02 99 1012.9
20260507103055 53 215 0.9 0.9 0.00 0.02 0.02 99 1012.9
20260507102551 0 0.0 0.0 0.00 0.00 0.00 1012.8